Flag for Belgium Weather past 2 weeks in Antwerp, Belgium

Now
59 °F

Passing clouds.


Feels Like: 58 °F
Forecast: 50 / 57 °F
Wind: 8 mph from West

Location: Antwerp / Deurne

Current Time: Oct 20, 2014 at 8:55:01 PM

Latest Report: Oct 20, 2014 at 8:20 PM


Visibility: N/A

Pressure: 29.98 "Hg

Humidity: 77%

Dew point: 52 °F

Location of AntwerpLocation

Historic Weather in Antwerp — Graph

°F

Antwerp temperature yesterday

Maximum temperature yesterday: 72 °F (at 1:20 PM)
Minimum temperature yesterday: 61 °F (at 7:20 AM)
Average temperature yesterday: 65 °F

Past Weeks' High & Low Weather Summary

 TemperatureHumidityPressure
High75 °F (Oct 18, 2:50 PM)100% (Oct 12, 6:20 AM)30.07 "Hg (Oct 12, 6:20 AM)
Low43 °F (Oct 12, 6:50 AM)52% (Oct 10, 2:50 PM)29.47 "Hg (Oct 7, 7:20 AM)
Average58 °F81%29.80 "Hg
* Reported Oct 5 7:20 PM — Oct 20 7:50 PM, Antwerp, Weather by CustomWeather, © 2014

Note: Actual official high and low records may vary slightly from our data, if they occured in-between our weather recording intervals... More about our weather records

Advertising

Antwerp weather history for previous 24 hours

 ConditionsComfort  
Time TempWeatherWind HumidityBarometerVisibility
7:50 PM
Oct 20
59 °FPassing clouds.9 mph77%29.98 "HgN/A
7:20 PM59 °FSprinkles. Partly sunny.6 mph77%29.98 "HgN/A
6:50 PM59 °FSprinkles. Partly sunny.7 mph77%29.98 "HgN/A
6:20 PM61 °FPassing clouds.7 mph68%29.98 "HgN/A
5:50 PM63 °FPassing clouds.9 mph59%29.98 "HgN/A
5:20 PM63 °FPassing clouds.10 mph59%29.98 "HgN/A
4:50 PM64 °FPassing clouds.9 mph56%29.98 "HgN/A
4:20 PM63 °FScattered clouds.12 mph64%30.01 "HgN/A
3:50 PM64 °FPassing clouds.14 mph60%30.01 "HgN/A
3:20 PM64 °FPassing clouds.13 mph60%30.01 "HgN/A
2:50 PM63 °FPassing clouds.14 mph64%30.04 "HgN/A
2:20 PM61 °FPassing clouds.12 mph68%30.04 "HgN/A
1:50 PM63 °FScattered clouds.13 mph64%30.04 "HgN/A
1:20 PM61 °FPassing clouds.10 mph72%30.07 "HgN/A
12:50 PM61 °FScattered clouds.13 mph68%30.07 "HgN/A
12:20 PM59 °FScattered clouds.13 mph77%30.07 "HgN/A
11:50 AM59 °FPartly sunny.13 mph77%30.07 "HgN/A
11:20 AM59 °FBroken clouds.10 mph77%30.07 "HgN/A
10:50 AM59 °FBroken clouds.10 mph77%30.07 "HgN/A
10:20 AM57 °FBroken clouds.12 mph82%30.07 "HgN/A
9:50 AM57 °FBroken clouds.10 mph82%30.07 "HgN/A
9:20 AM57 °FBroken clouds.9 mph82%30.07 "HgN/A
8:50 AM57 °FPartly cloudy.10 mph82%30.04 "HgN/A
8:20 AM57 °FPassing clouds.9 mph82%30.04 "HgN/A
7:50 AM57 °FPartly cloudy.9 mph82%30.04 "HgN/A
7:20 AM57 °FPartly cloudy.10 mph82%30.04 "HgN/A
6:50 AM57 °FPassing clouds.8 mph82%30.04 "HgN/A
5:20 AM57 °FPassing clouds.10 mph82%30.04 "HgN/A
4:50 AM57 °FPassing clouds.9 mph88%30.04 "HgN/A
4:20 AM57 °FClear.10 mph88%30.04 "Hg10 mi
3:50 AM59 °FClear.13 mph82%30.04 "Hg10 mi
3:20 AM59 °FPassing clouds.12 mph82%30.04 "HgN/A
2:50 AM59 °FPassing clouds.10 mph82%30.04 "HgN/A
2:20 AM59 °FPassing clouds.12 mph82%30.04 "HgN/A
1:50 AM59 °FPassing clouds.13 mph82%30.04 "HgN/A
1:20 AM61 °FPassing clouds.12 mph77%30.04 "HgN/A
12:50 AM61 °FPassing clouds.14 mph77%30.04 "HgN/A
12:20 AM61 °FClear.13 mph77%30.04 "Hg10 mi
11:50 PM
Oct 19
61 °FClear.12 mph77%30.04 "Hg10 mi
11:20 PM61 °FClear.13 mph83%30.04 "Hg10 mi
10:50 PM61 °FClear.14 mph77%30.04 "Hg10 mi
10:20 PM61 °FClear.10 mph77%30.04 "Hg10 mi
9:50 PM61 °FClear.13 mph77%30.04 "Hg10 mi
9:20 PM63 °FClear.13 mph73%30.01 "Hg10 mi
8:50 PM63 °FClear.14 mph73%30.01 "Hg10 mi
8:20 PM63 °FClear.13 mph77%30.01 "Hg10 mi
Weather by CustomWeather, © 2014

See weather overviewHow to use our weather pages